Terminal Aerodrome Forecast
Issued by NWS

Home | Current Version | Previous Version | Text Only | Print | Product List | Glossary On
Versions: 1 2 3 4 5 6 7 8 9 10 11 12 13 14 15 16 17 18 19 20 21 22 23 24 25 26 27 28 29 30 31 32 33 34 35 36 37 38 39 40 41 42 43 44 45 46 47 48 49 50
000
FTUS46 KEKA 300534
TAFACV
TAF
KACV 300534Z 3006/0106 34004KT P6SM OVC006
     FM300900 25003KT 3SM BR OVC003
     FM301600 29006KT P6SM BKN008
     FM302100 29009KT P6SM SCT010
     FM010200 35003KT P6SM BKN008=

USA.gov is the U.S. government's official web portal to all federal, state and local government web resources and services.